Regional Weather Roundup
Issued by NWS

Home | Current Version | Previous Version | Text Only | Print | Product List | Glossary Off
Versions: 1 2 3 4 5 6 7 8 9 10 11 12 13 14 15 16 17 18 19 20 21 22 23 24 25 26 27

000
ASUS45 KPSR 211810
RWRAZ

ARIZONA HOURLY REGIONAL WEATHER ROUNDUP
NATIONAL WEATHER SERVICE PHOENIX AZ
1100 AM MST SAT OCT 21 2017

NOTE: FAIR INDICATES FEW OR NO CLOUDS BELOW 12,000 FEET WITH NO
SIGNIFICANT WEATHER AND/OR OBSTRUCTIONS TO VISIBILITY.

AZZ001>003-036-211900-
NORTHWEST ARIZONA

CITY           SKY/WX    TMP DP  RH WIND       PRES   REMARKS
BULLHEAD CITY  SUNNY     73  16  11 N22G30    30.10S
KINGMAN        SUNNY     65  15  14 N12G18    30.17S
6HR MIN TEMP:  47; 6HR MAX TEMP:  65;

$$

AZZ004>008-015-016-018-211900-
NORTH CENTRAL ARIZONA

CITY           SKY/WX    TMP DP  RH WIND       PRES   REMARKS
GRAND CANYON   SUNNY     53   6  15 VRB5      30.21R
6HR MIN TEMP:  25; 6HR MAX TEMP:  55;

WILLIAMS       SUNNY     54   9  16 N7G15     30.22R
PRESCOTT       SUNNY     61  18  18 N8        30.17R
6HR MIN TEMP:  41; 6HR MAX TEMP:  62;

FLAGSTAFF      SUNNY     55  21  26 NE12      30.21R
6HR MIN TEMP:  32; 6HR MAX TEMP:  56;

PAYSON         SUNNY     63  36  36 SW9       30.15R
PAGE           SUNNY     57  18  21 E6        30.18F
6HR MIN TEMP:  47; 6HR MAX TEMP:  57;

$$

AZZ009>014-017-211900-
NORTHEAST ARIZONA

CITY           SKY/WX    TMP DP  RH WIND       PRES   REMARKS
WINSLOW        SUNNY     61  23  23 NW9       30.18R
6HR MIN TEMP:  42; 6HR MAX TEMP:  61;

SAINT JOHNS    SUNNY     61  37  41 W12       30.14R
6HR MIN TEMP:  42; 6HR MAX TEMP:  61;

WINDOW ROCK    SUNNY     57  18  21 W10G20    30.16R
6HR MIN TEMP:  40; 6HR MAX TEMP:  57;

SHOW LOW       SUNNY     57  34  41 NW8G17    30.20R
$$

AZZ540-542>544-546-548-211900-
GREATER PHOENIX AREA

CITY           SKY/WX    TMP DP  RH WIND       PRES   REMARKS
PHOENIX        MOSUNNY   74  47  38 W3        30.00R
6HR MIN TEMP:  66; 6HR MAX TEMP:  74;

BUCKEYE        SUNNY     72  72 100 SW3       30.03R
GLENDALE       MOSUNNY   73  45  35 CALM      30.02R
LUKE AFB       SUNNY     75  45  34 CALM      30.00R
6HR MIN TEMP:  59; 6HR MAX TEMP:  75;

DEER VALLEY    CLOUDY    73  45  36 VRB5      30.01R
6HR MIN TEMP:  59; 6HR MAX TEMP:  74;

SCOTTSDALE     SUNNY     73  45  36 VRB3      30.03R
6HR MIN TEMP:  61; 6HR MAX TEMP:  74;

MESA-GATEWAY   MOSUNNY   73  43  33 CALM      30.02S
CHANDLER       SUNNY     75  45  33 CALM      30.02R
$$

AZZ539-553-211900-
SOUTHWEST MARICOPA COUNTY AND PINAL COUNTY

CITY           SKY/WX    TMP DP  RH WIND       PRES   REMARKS
CASA GRANDE    NOT AVBL
GILA BEND      PTSUNNY   73  41  31 CALM      30.01S
$$

AZZ503-504-507>509-211900-
SOUTHEAST ARIZONA

CITY           SKY/WX    TMP DP  RH WIND       PRES   REMARKS
TUCSON         SUNNY     75  45  34 CALM      30.06S
6HR MIN TEMP:  56; 6HR MAX TEMP:  75;

DAVIS-MONTHAN  SUNNY     76  45  32 NW3       30.04S
6HR MIN TEMP:  55; 6HR MAX TEMP:  76;

RYAN FIELD     SUNNY     75  45  33 W3        30.05S
NOGALES        SUNNY     72  46  39 MISG      30.09S
6HR MIN TEMP:  51; 6HR MAX TEMP:  73;

SIERRA VISTA   SUNNY     71  39  31 NW7       30.12R
6HR MIN TEMP:  53; 6HR MAX TEMP:  72;

DOUGLAS        SUNNY     72  43  35 VRB6      30.08R
6HR MIN TEMP:  51; 6HR MAX TEMP:  73;

$$

AZZ532-211900-
SOUTHWEST ARIZONA

CITY           SKY/WX    TMP DP  RH WIND       PRES   REMARKS
YUMA           SUNNY     78  26  14 N12G20    30.02R
6HR MIN TEMP:  62; 6HR MAX TEMP:  79;

$$

CAZ041-043-047-048-061-525>527-560>570-211900-
SOUTHERN CALIFORNIA

CITY           SKY/WX    TMP DP  RH WIND       PRES   REMARKS
DOWNTOWN L.A.  SUNNY     72  53  51 CALM      30.05S
6HR MIN TEMP:  60; 6HR MAX TEMP:  73;

L.A. AIRPORT   MOSUNNY   70  54  56 CALM      30.06S
6HR MIN TEMP:  61; 6HR MAX TEMP:  70;

SAN DIEGO      MOSUNNY   70  54  56 W7        30.06S
6HR MIN TEMP:  61; 6HR MAX TEMP:  71;

BURBANK        SUNNY     67  45  45 E6        30.06S
6HR MIN TEMP:  53; 6HR MAX TEMP:  68;

ONTARIO        MOSUNNY   66  52  60 W5        30.07R
6HR MIN TEMP:  54; 6HR MAX TEMP:  66;

RIVERSIDE      SUNNY     72  43  35 CALM      30.06S
6HR MIN TEMP:  53; 6HR MAX TEMP:  72;

PALM SPRINGS   SUNNY     82  22  11 N8G18     30.08R
6HR MIN TEMP:  65; 6HR MAX TEMP:  82;

EL CENTRO NAS  MOSUNNY   81  32  17 N10       30.04R
6HR MIN TEMP:  57; 6HR MAX TEMP:  81;

IMPERIAL       SUNNY     79  42  26 N6        30.02R
6HR MIN TEMP:  59; 6HR MAX TEMP:  79;

BLYTHE         SUNNY     78  18  10 N21G29    30.05R
6HR MIN TEMP:  63; 6HR MAX TEMP:  78;

NEEDLES        SUNNY     77  13   9 N21G29    30.11R
6HR MIN TEMP:  66; 6HR MAX TEMP:  77;

$$

NVZ020-UTZ003-211900-
SOUTHERN NEVADA-UTAH

CITY           SKY/WX    TMP DP  RH WIND       PRES   REMARKS
LAS VEGAS      MOSUNNY   65  17  15 E6        30.18S
6HR MIN TEMP:  58; 6HR MAX TEMP:  65;

SALT LAKE CITY MOSUNNY   50  22  33 W9        30.24R
6HR MIN TEMP:  39; 6HR MAX TEMP:  50;

$$

NMZ009-TXZ055-211900-
NEW MEXICO-WEST TEXAS

CITY           SKY/WX    TMP DP  RH WIND       PRES   REMARKS
ALBUQUERQUE    MOSUNNY   64  31  28 W13       30.06R
6HR MIN TEMP:  56; 6HR MAX TEMP:  64;

EL PASO        MOSUNNY   74  45  35 W14       30.02R
6HR MIN TEMP:  64; 6HR MAX TEMP:  75;

$$


........................KEY........................
SKY/WX - SKY CONDITION/WEATHER
TMP    - TEMPERATURE IN FAHRENHEIT
DP     - DEW POINT IN FAHRENHEIT
RH     - RELATIVE HUMIDITY IN PERCENT
WIND   - DIRECTION AND SPEED IN MILES PER HOUR (MPH)
VRB    - VARIABLE WIND DIRECTION
PRES   - MEAN SEA LEVEL PRESSURE IN INCHES OF MERCURY
         F - FALLING PRESSURE   R - RISING PRESSURE
         S - STEADY PRESSURE
VSB    - VISIBILITY IN MILES
HX     - HEAT INDEX IN FAHRENHEIT
WCI    - WIND CHILL INDEX IN FAHRENHEIT
TC     - TEMPERATURE IN CELSIUS WHICH IS ALSO KNOWN AS
         TEMPERATURE IN CENTIGRADE
AFB    - AIR FORCE BASE
         LUKE AFB IS LUKE AIR FORCE BASE
         DAVIS-MONTHAN IS DAVIS-MONTHAN AIR FORCE BASE
NAS    - NAVAL AIR STATION
         EL CENTRO NAS IS EL CENTRO NAVAL AIR STATION
N/A    - NOT AVAILABLE





USA.gov is the U.S. government's official web portal to all federal, state and local government web resources and services.